El Paso, TX

5:35 PM MDT on September 28, 2016 (GMT -0600)
El Paso International

Weather History for KELP - April, 2014

Change the Weather History Date:

Wednesday, April 30, 2014

  Actual Average Record
Temperature  
Mean Temperature 60 °F 69 °F  
Max Temperature 68 °F 83 °F 97 °F (1992)
Min Temperature 51 °F 55 °F 33 °F (1984)
Degree Days  
Heating Degree Days 5 1  
Month to date heating degree days 61 92  
Since 1 July heating degree days 2026 2465  
Cooling Degree Days 0 5  
Month to date cooling degree days 101 82  
Year to date cooling degree days 126 92  
Growing Degree Days 10 (Base 50)    
Moisture  
Dew Point 19 °F    
Average Humidity 22    
Maximum Humidity 30    
Minimum Humidity 13    
Precipitation  
Precipitation 0.00 in 0.01 in 0.12 in (1974)
Month to date precipitation 0.45 0.23  
Year to date precipitation 0.63 1.35  
Snow  
Snow 0.00 in - - ()
Month to date snowfall 0.0  
Since 1 July snowfall T  
Snow Depth 0.00 in    
Sea Level Pressure  
Sea Level Pressure 30.02 in    
Wind  
Wind Speed 15 mph (East)    
Max Wind Speed 26 mph    
Max Gust Speed 44 mph    
Visibility 8 miles    
Events      
T = Trace of Precipitation, MM = Missing Value Source: NWS Daily Summary

Daily Weather History Graph

Daily Weather History Graph

Search for Another Location

Airport or City:

Trip Planner

Search our weather history database for the weather conditions in past years. The results will help you decide how hot, cold, wet, or windy it might be!

Date:

Astronomy

Apr. 30, 2014 Rise Set
Actual Time 6:20 AM MDT 7:45 PM MDT
Civil Twilight 5:54 AM MDT 8:10 PM MDT
Nautical Twilight 5:24 AM MDT 8:41 PM MDT
Astronomical Twilight 4:51 AM MDT 9:14 PM MDT
Moon 7:26 AM MDT (4/30) 9:23 PM MDT (4/30)
Length of Visible Light 14h 16m
Length of Day
13h 24m
Waxing Crescent, 3% of the Moon is Illuminated
Apr 30
Waxing Crescent
May 6
First Quarter
May 14
Full
May 21
Last Quarter
May 28
New

Hourly Weather History & Observations

Time (MDT) Temp. Dew Point Humidity Pressure Visibility Wind Dir Wind Speed Gust Speed Precip Events Conditions
12:51 AM 54.0 °F 3.9 °F 13% 29.97 in 10.0 mi NNW 6.9 mph - N/A   Clear
1:51 AM 51.1 °F 9.0 °F 18% 29.98 in 10.0 mi NNW 5.8 mph - N/A   Clear
2:51 AM 51.8 °F 10.4 °F 19% 30.10 in 10.0 mi NNE 8.1 mph - N/A   Clear
3:51 AM 52.0 °F 12.0 °F 20% 29.99 in 10.0 mi Variable 3.5 mph - N/A   Clear
4:51 AM 52.0 °F 15.1 °F 23% 29.99 in 10.0 mi ENE 6.9 mph - N/A   Clear
5:51 AM 51.1 °F 19.0 °F 28% 30.00 in 6.0 mi East 11.5 mph 24.2 mph N/A   Partly Cloudy
6:51 AM 51.1 °F 19.9 °F 29% 30.02 in 3.0 mi East 15.0 mph 28.8 mph N/A   Widespread Dust
6:54 AM 51.1 °F 19.9 °F 29% 30.15 in 3.0 mi East 15.0 mph 28.8 mph N/A   Widespread Dust
7:49 AM 51.8 °F 21.2 °F 30% 30.17 in 3.0 mi East 13.8 mph 26.5 mph N/A   Widespread Dust
7:51 AM 52.0 °F 21.9 °F 31% 30.06 in 3.0 mi East 15.0 mph 26.5 mph N/A   Widespread Dust
8:51 AM 53.6 °F 21.2 °F 28% 30.19 in 4.0 mi East 16.1 mph 26.5 mph N/A   Widespread Dust
9:51 AM 55.0 °F 21.9 °F 28% 30.09 in 4.0 mi East 18.4 mph 28.8 mph N/A   Widespread Dust
10:51 AM 60.1 °F 21.0 °F 22% 30.06 in 5.0 mi ESE 20.7 mph 35.7 mph N/A   Widespread Dust
11:51 AM 61.0 °F 21.0 °F 21% 30.06 in 7.0 mi East 19.6 mph 26.5 mph N/A   Clear
12:51 PM 63.0 °F 21.0 °F 20% 30.02 in 10.0 mi East 23.0 mph 29.9 mph N/A   Clear
1:51 PM 64.0 °F 21.0 °F 19% 30.00 in 10.0 mi East 18.4 mph 26.5 mph N/A   Clear
2:51 PM 66.0 °F 19.9 °F 17% 29.97 in 10.0 mi East 17.3 mph 25.3 mph N/A   Clear
3:51 PM 66.9 °F 21.0 °F 17% 29.94 in 10.0 mi East 17.3 mph 24.2 mph N/A   Clear
4:51 PM 66.2 °F 21.2 °F 18% 30.05 in 10.0 mi East 17.3 mph 25.3 mph N/A   Clear
5:51 PM 66.0 °F 21.0 °F 18% 29.93 in 10.0 mi East 17.3 mph 26.5 mph N/A   Clear
6:51 PM 64.0 °F 21.0 °F 19% 29.94 in 10.0 mi East 16.1 mph - N/A   Clear
7:51 PM 61.0 °F 21.0 °F 21% 29.96 in 10.0 mi East 18.4 mph 24.2 mph N/A   Clear
8:51 PM 60.1 °F 21.0 °F 22% 29.97 in 10.0 mi East 11.5 mph 25.3 mph N/A   Clear
9:51 PM 59.0 °F 21.9 °F 24% 29.99 in 10.0 mi East 17.3 mph 24.2 mph N/A   Partly Cloudy
10:51 PM 59.0 °F 21.0 °F 23% 29.99 in 10.0 mi East 17.3 mph 25.3 mph N/A   Scattered Clouds
11:51 PM 59.0 °F 21.0 °F 23% 29.99 in 10.0 mi East 20.7 mph 26.5 mph N/A   Scattered Clouds